Stations météo

réclame
Mon MeteoGroup
Solenzara, France (7765): Température de l'air & dewpoint: 18.05.2019 05:00:00 - 24.05.2019 05:00:00 (CEST)Solenzara, France (7765): Température de l'air 5cm: 18.05.2019 05:00:00 - 24.05.2019 05:00:00 (CEST)Solenzara, France (7765): Température de l'air -20cm: 18.05.2019 05:00:00 - 24.05.2019 05:00:00 (CEST)Solenzara, France (7765): Vitesse du vent & gusts: 18.05.2019 05:00:00 - 24.05.2019 05:00:00 (CEST)Solenzara, France (7765): Direction du vent: 18.05.2019 05:00:00 - 24.05.2019 05:00:00 (CEST)Solenzara, France (7765): reduced air pressure: 18.05.2019 05:00:00 - 24.05.2019 05:00:00 (CEST)Solenzara, France (7765): visibility: 18.05.2019 05:00:00 - 24.05.2019 05:00:00 (CEST)Solenzara, France (7765): Ensoleillement: 18.05.2019 05:00:00 - 24.05.2019 05:00:00 (CEST)Solenzara, France (7765): Quantités de précipitations: 18.05.2019 05:00:00 - 24.05.2019 05:00:00 (CEST)
Date & Time tt [°C] td [°C] tt 5cm [°C] tt -20cm [°C] ff [km/h] ff [knt] fx [km/h] fx [knt] dd ppp [hPa] vv [km] sd [min] rr [mm]
24.05.2019 05:00:00 13,0 9,6 10,6 20,5 8 4 16 9 W 1015,5 20 0 0,0
24.05.2019 04:00:00 13,4 10,2 10,9 20,6 10 5 16 9 W 1015,6 20 0 0,0
24.05.2019 03:00:00 13,6 10,8 11,2 20,8 8 5 16 8 W 1015,8 20 0 0,0
24.05.2019 02:00:00 14,1 11,4 11,6 20,9 9 5 13 7 WNW 1015,9 20 0 0,0
24.05.2019 01:00:00 14,6 11,9 12,1 21,0 8 4 16 8 W 1016,2 20 0 0,0
24.05.2019 00:00:00 14,8 12,3 12,4 21,1 9 5 13 7 W 1016,4 20 0 0,0
23.05.2019 23:00:00 15,5 12,6 12,6 21,2 6 3 10 5 WNW 1016,6 20 0 0,0
23.05.2019 22:00:00 16,2 13,1 12,6 21,2 6 3 9 5 WNW 1016,4 20 0 0,0
23.05.2019 21:00:00 17,1 13,8 14,5 21,2 4 2 9 5 SW 1016,2 20 2 0,0
23.05.2019 20:00:00 18,1 14,2 18,3 21,2 9 5 14 7 S 1016,2 20 60 0,0
23.05.2019 19:00:00 19,0 14,0 19,6 21,1 9 5 15 8 SE 1015,9 20 60 0,0
23.05.2019 18:00:00 19,8 13,9 23,7 20,9 10 6 16 9 SE 1016,0 20 60 0,0
23.05.2019 17:00:00 19,9 13,6 24,7 20,6 11 6 20 11 ESE 1016,3 20 60 0,0
23.05.2019 16:00:00 19,6 14,0 28,3 20,4 13 7 20 11 ESE 1016,8 20 60 0,0
23.05.2019 15:00:00 20,4 15,0 29,0 20,1 11 6 22 12 ESE 1017,3 19 60 0,0
23.05.2019 14:00:00 20,1 15,1 29,1 19,9 14 7 23 12 SE 1017,5 19 60 0,0
23.05.2019 13:00:00 19,8 13,9 30,9 19,7 14 8 23 13 SE 1017,8 20 60 0,0
23.05.2019 12:00:00 20,0 14,6 28,8 19,7 15 8 21 11 E 1018,1 20 58 0,0
23.05.2019 11:00:00 19,4 14,0 20,6 19,7 10 5 15 8 E 1018,3 20 8 0,0
23.05.2019 10:00:00 18,0 13,7 19,7 19,7 5 3 13 7 E 1018,3 20 0 0,0
23.05.2019 09:00:00 18,0 13,1 20,0 19,8 9 5 14 8 SW 1017,9 20 23 0,0
23.05.2019 08:00:00 16,2 12,6 14,7 19,8 5 3 14 8 W 1017,6 20 2 0,0
23.05.2019 07:00:00 14,7 11,8 13,7 20,0 8 5 15 8 WNW 1017,4 20 0 0,0
23.05.2019 06:00:00 14,2 11,5 11,7 20,1 7 4 14 8 W 1016,9 20 0 0,0
23.05.2019 05:00:00 13,6 11,3 11,7 20,2 8 4 14 8 W 1016,7 20 0 0,0
23.05.2019 04:00:00 14,6 12,1 13,4 20,4 6 4 12 7 W 1016,8 20 0 0,0
23.05.2019 03:00:00 14,6 12,3 11,8 20,5 7 4 10 5 W 1017,1 20 0 0,0
23.05.2019 02:00:00 14,5 12,2 12,1 20,6 6 3 10 5 WNW 1017,1 20 0 0,0
23.05.2019 01:00:00 14,8 12,7 12,2 20,7 7 4 11 6 W 1016,9 20 0 0,0
23.05.2019 00:00:00 15,4 13,4 12,9 20,8 5 3 9 5 W 1016,6 20 0 0,0
22.05.2019 23:00:00 16,1 13,9 13,7 20,8 5 3 9 5 W 1016,6 20 0 0,0
22.05.2019 22:00:00 17,0 14,5 15,2 20,9 5 3 11 6 NNW 1016,3 20 0 0,0
22.05.2019 21:00:00 17,2 14,5 16,1 20,9 8 5 16 8 NNE 1015,6 20 0 0,0
22.05.2019 20:00:00 17,4 14,5 17,7 20,8 9 5 14 7 NNE 1015,1 20 2 0,0
22.05.2019 19:00:00 17,9 15,2 18,5 20,7 11 6 16 9 NNE 1015,1 20 27 0,0
22.05.2019 18:00:00 19,3 14,5 24,3 20,6 8 5 18 10 NE 1015,0 20 60 0,0
22.05.2019 17:00:00 19,9 13,6 25,0 20,4 9 5 16 9 E 1015,0 20 60 0,0
22.05.2019 16:00:00 19,7 14,9 22,9 20,1 10 5 18 10 ESE 1015,4 20 40 0,0
22.05.2019 15:00:00 18,7 14,6 22,5 19,8 15 8 26 14 ENE 1015,6 20 44 0,0
22.05.2019 14:00:00 18,7 15,0 22,3 19,5 14 8 26 14 NE 1016,0 20 44 0,0
22.05.2019 13:00:00 20,0 15,0 31,8 19,3 16 9 24 13 ENE 1016,0 20 60 0,0
22.05.2019 12:00:00 20,0 14,8 28,8 19,1 13 7 20 11 E 1015,6 20 60 0,0
22.05.2019 11:00:00 20,0 13,2 29,8 19,1 12 6 18 10 E 1015,3 20 60 0,0
22.05.2019 10:00:00 19,2 12,9 27,5 19,1 9 5 14 8 ESE 1015,3 20 60 0,0
22.05.2019 09:00:00 18,6 12,6 18,3 19,2 6 4 11 6 E 1015,4 20 60 0,0
22.05.2019 08:00:00 16,7 12,8 14,6 19,3 5 3 9 5 S 1015,1 20 54 0,0
22.05.2019 07:00:00 13,9 10,9 10,6 19,4 4 2 12 7 WNW 1015,2 20 37 0,0
22.05.2019 06:00:00 12,9 10,4 10,4 19,6 9 5 13 7 W 1014,8 20 0 0,0
22.05.2019 05:00:00 13,4 10,6 10,8 19,7 8 5 18 10 W 1014,7 20 0 0,0
22.05.2019 04:00:00 13,6 10,8 11,0 19,8 10 5 16 9 W 1014,8 20 0 0,0
22.05.2019 03:00:00 13,7 11,0 11,4 19,9 9 5 16 8 W 1015,2 20 0 0,0
22.05.2019 02:00:00 14,1 12,1 11,8 20,1 8 4 14 7 W 1015,2 20 0 0,0
22.05.2019 01:00:00 14,2 12,6 12,0 20,2 8 4 12 6 W 1015,4 20 0 0,0
22.05.2019 00:00:00 14,6 12,8 12,3 20,3 6 3 11 6 W 1015,8 20 0 0,0
21.05.2019 23:00:00 15,1 12,6 12,5 20,3 6 3 12 7 WNW 1015,6 20 0 0,0
21.05.2019 22:00:00 15,4 13,2 12,8 20,4 6 3 11 6 W 1014,9 20 0 0,0
21.05.2019 21:00:00 16,8 14,8 13,8 20,4 5 3 10 6 NNE 1014,1 20 0 0,0
21.05.2019 20:00:00 18,0 15,1 17,0 20,3 7 4 16 9 ENE 1013,6 20 52 0,0
21.05.2019 19:00:00 19,2 15,3 19,6 20,2 12 7 22 12 ENE 1013,3 20 60 0,0
21.05.2019 18:00:00 19,7 13,6 23,7 20,0 14 7 29 16 NE 1013,1 20 60 0,0
21.05.2019 17:00:00 20,1 15,3 24,1 19,8 19 10 28 15 NE 1012,8 20 60 0,0
21.05.2019 16:00:00 20,2 15,0 25,9 19,5 19 10 32 17 ENE 1012,6 20 60 0,0
21.05.2019 15:00:00 20,4 15,0 26,4 19,2 20 11 32 17 NE 1012,5 20 60 0,0
21.05.2019 14:00:00 20,4 15,4 29,6 18,9 18 10 34 19 ENE 1012,2 20 60 0,0
21.05.2019 13:00:00 20,9 15,4 31,4 18,6 25 13 39 21 E 1011,6 20 60 0,0
21.05.2019 12:00:00 22,4 12,9 30,7 18,4 17 9 42 23 NE 1011,2 20 60 0,0
21.05.2019 11:00:00 23,2 6,9 31,6 18,4 17 9 41 22 W 1011,0 20 60 0,0
21.05.2019 10:00:00 22,7 6,9 24,4 18,4 12 7 27 15 W 1010,7 20 60 0,0
21.05.2019 09:00:00 18,9 12,6 20,7 18,4 14 8 22 12 NNE 1010,3 20 60 0,0
21.05.2019 08:00:00 18,3 10,9 15,0 18,6 5 3 19 10 NNE 1010,1 20 53 0,0
21.05.2019 07:00:00 15,4 11,0 11,8 18,7 13 7 19 10 N 1009,6 20 40 0,0
21.05.2019 06:00:00 13,8 11,0 10,8 18,8 12 7 27 15 NNW 1009,3 20 0 0,0
21.05.2019 05:00:00 13,2 10,7 10,3 18,9 8 5 17 9 N 1009,3 20 0 0,0
21.05.2019 04:00:00 13,4 10,7 10,3 19,0 5 3 17 9 NNW 1009,4 20 0 0,0
21.05.2019 03:00:00 13,9 10,9 11,4 19,1 5 3 14 8 WNW 1009,9 20 0 0,0
21.05.2019 02:00:00 14,6 11,2 11,7 19,1 2 1 13 7 S 1010,0 20 0 0,0
21.05.2019 01:00:00 15,2 11,4 13,6 19,2 9 5 13 7 NE 1010,2 20 0 0,0
21.05.2019 00:00:00 15,4 11,4 13,8 19,2 8 4 15 8 WSW 1010,5 20 0 0,0
20.05.2019 23:00:00 15,6 11,6 14,2 19,3 5 3 11 6 W 1010,6 20 0 0,0
20.05.2019 22:00:00 16,3 11,2 14,6 19,3 4 2 8 4 NW 1010,4 20 0 0,0
20.05.2019 21:00:00 16,7 11,4 15,3 19,3 2 1 16 9 SSE 1009,6 20 0 0,0
20.05.2019 20:00:00 17,2 11,2 16,8 19,3 11 6 22 12 ENE 1009,1 20 0 0,0
20.05.2019 19:00:00 17,6 10,2 18,1 19,2 17 9 35 19 NE 1008,3 20 0 0,0
20.05.2019 18:00:00 18,6 13,2 19,2 19,0 21 11 29 15 NE 1007,7 20 11 0,0
20.05.2019 17:00:00 20,6 9,2 22,2 18,8 12 6 20 11 NNE 1007,2 20 28 0,0
20.05.2019 16:00:00 20,3 9,2 24,2 18,6 10 5 20 11 E 1006,9 20 13 0,0
20.05.2019 15:00:00 20,6 12,0 23,6 18,3 10 6 32 17 SSE 1006,9 20 26 0,0
20.05.2019 14:00:00 20,5 13,0 24,1 18,1 23 12 41 22 SSE 1006,9 20 47 0,0
20.05.2019 13:00:00 19,7 10,1 25,9 17,9 6 4 20 11 ESE 1006,9 20 44 0,0
20.05.2019 12:00:00 18,9 10,2 23,3 17,8 11 6 17 9 E 1007,1 19 60 0,0
20.05.2019 11:00:00 17,1 9,0 23,2 17,7 8 4 12 6 ESE 1007,2 20 53 0,0
20.05.2019 10:00:00 17,2 8,9 22,0 17,8 7 4 13 7 ESE 1007,3 20 60 0,0
20.05.2019 09:00:00 16,0 9,4 16,4 17,9 5 3 10 5 S 1007,1 20 31 0,0
20.05.2019 08:00:00 15,1 9,9 12,1 18,0 7 4 14 7 SSE 1006,9 20 50 0,0
20.05.2019 07:00:00 11,6 6,7 7,1 18,2 9 5 13 7 W 1006,8 20 29 0,0
20.05.2019 06:00:00 9,8 6,5 6,3 18,3 6 3 14 7 WSW 1006,6 20 0 0,0
20.05.2019 05:00:00 10,5 6,6 5,9 18,5 4 2 12 6 WNW 1006,5 20 0 0,0
20.05.2019 04:00:00 10,5 6,8 6,7 18,7 3 2 12 7 N 1006,5 20 0 0,0
20.05.2019 03:00:00 12,0 6,5 7,7 18,9 5 3 13 7 WSW 1006,5 20 0 0,0
20.05.2019 02:00:00 12,1 7,8 8,0 19,0 4 2 12 7 S 1006,8 20 0 0,0
20.05.2019 01:00:00 13,4 8,2 9,2 19,1 6 4 15 8 WNW 1007,1 20 0 0,0
20.05.2019 00:00:00 13,3 7,5 8,6 19,2 4 2 17 9 WNW 1007,2 20 0 0,0
19.05.2019 23:00:00 14,2 5,5 9,5 19,3 7 4 13 7 NNW 1007,2 20 0 0,0
19.05.2019 22:00:00 14,6 5,7 10,5 19,4 5 3 20 11 NW 1007,1 20 0 0,0
19.05.2019 21:00:00 15,2 6,7 12,3 19,4 6 4 18 10 WNW 1006,7 20 0 0,0
19.05.2019 20:00:00 15,6 11,8 14,9 19,4 5 3 12 7 SW 1006,6 20 3 0,0
19.05.2019 19:00:00 16,4 12,6 15,4 19,4 8 4 29 16 SW 1006,3 20 0 0,0
19.05.2019 18:00:00 17,6 5,8 19,1 19,3 9 5 27 14 W 1006,1 20 0 0,0
19.05.2019 17:00:00 18,2 7,3 19,6 19,2 11 6 29 15 SW 1005,9 20 0 0,0
19.05.2019 16:00:00 18,1 11,6 19,9 19,0 21 11 45 25 N 1005,7 20 1 0,0
19.05.2019 15:00:00 19,5 6,6 24,2 18,8 16 9 35 19 WNW 1005,2 20 0 0,0
19.05.2019 14:00:00 18,8 6,3 23,5 18,5 9 5 26 14 WSW 1005,0 20 19 0,0
19.05.2019 13:00:00 19,7 11,5 24,2 18,2 10 5 20 11 ESE 1004,9 20 44 0,0
19.05.2019 12:00:00 19,0 11,8 29,0 18,1 13 7 21 11 ESE 1004,9 20 60 0,0
19.05.2019 11:00:00 18,9 12,6 20,8 18,0 16 9 23 13 E 1004,9 20 52 0,0
19.05.2019 10:00:00 17,6 12,3 18,4 18,1 13 7 23 12 ESE 1004,9 20 55 0,0
19.05.2019 09:00:00 16,2 13,1 15,5 18,1 13 7 23 12 SE 1004,8 20 43 0,0
19.05.2019 08:00:00 14,4 12,6 13,3 18,2 4 2 10 5 WSW 1004,9 20 0 0,0
19.05.2019 07:00:00 13,3 11,9 12,1 18,3 6 4 11 6 WSW 1005,1 20 0 0,0
19.05.2019 06:00:00 13,0 11,7 11,7 18,3 6 3 12 6 WSW 1004,9 20 0 0,0
19.05.2019 05:00:00 13,1 12,2 11,7 18,4 6 3 8 5 W 1004,8 20 0 0,0
19.05.2019 04:00:00 13,6 12,7 12,1 18,4 6 3 9 5 W 1005,2 20 0 0,0
19.05.2019 03:00:00 14,0 13,0 11,9 18,5 4 2 8 4 WSW 1005,5 20 0 0,0
19.05.2019 02:00:00 14,6 13,5 13,5 18,6 7 4 13 7 S 1005,9 20 0 0,0
19.05.2019 01:00:00 14,8 13,7 13,9 18,6 9 5 12 7 S 1006,1 20 0 0,0
19.05.2019 00:00:00 15,3 14,2 14,6 18,6 4 2 8 4 SW 1006,4 20 0 0,0
18.05.2019 23:00:00 15,4 14,3 14,7 18,7 3 2 8 5 WSW 1006,4 19 0 0,0
18.05.2019 22:00:00 15,5 14,4 14,5 18,7 4 2 12 6 N 1006,0 20 0 0,2
18.05.2019 21:00:00 15,6 14,1 14,7 18,7 9 5 17 9 NE 1005,6 10 0 0,6
18.05.2019 20:00:00 16,1 14,1 15,5 18,6 10 5 21 11 NE 1005,0 20 0 0,2
18.05.2019 19:00:00 16,7 13,4 16,8 18,5 12 6 23 13 NE 1004,3 20 0 0,0
18.05.2019 18:00:00 17,9 13,6 19,6 18,4 11 6 22 12 ENE 1003,8 20 1 0,0
18.05.2019 17:00:00 18,2 14,3 20,2 18,2 14 8 23 13 ENE 1003,1 20 23 0,0
18.05.2019 16:00:00 19,6 13,5 21,3 18,1 14 8 25 14 NNE 1002,6 20 44 0,0
18.05.2019 15:00:00 19,4 13,1 16,9 17,9 9 5 18 10 N 1002,9 20 23 0,2
18.05.2019 14:00:00 16,9 13,6 16,8 17,8 9 5 22 12 SSE 1002,9 20 5 0,0
18.05.2019 13:00:00 19,2 13,1 21,3 17,7 16 8 24 13 SE 1002,4 20 53 0,0
18.05.2019 12:00:00 17,3 13,0 20,3 17,6 8 4 16 8 SSE 1002,4 20 0 0,0
18.05.2019 11:00:00 18,1 12,5 19,2 17,6 10 5 16 9 NNE 1002,0 20 1 0,0
18.05.2019 10:00:00 16,9 12,2 17,8 17,7 9 5 13 7 N 1001,7 20 0 0,0
18.05.2019 09:00:00 15,9 12,1 16,5 17,7 6 4 13 7 NNW 1001,5 20 8 0,0
18.05.2019 08:00:00 14,8 11,4 12,6 17,8 5 3 13 7 W 1001,0 20 60 0,0
18.05.2019 07:00:00 11,9 10,0 9,4 17,9 7 4 16 8 W 1000,6 20 39 0,0
18.05.2019 06:00:00 11,1 9,4 9,4 18,1 9 5 18 10 W 1000,1 20 0 0,0
18.05.2019 05:00:00 11,4 9,8 9,8 18,2 11 6 19 10 W 1000,2 20 0 0,0

tt = Température de l'air
td = dewpoint
tt 5cm = Température de l'air 5cm
tt -20cm = Température de l'air -20cm
ff = Vitesse du vent
fx = gusts
dd = Direction du vent
ppp = reduced air pressure
vv = visibility
sd = Ensoleillement
rr = Quantités de précipitations

stations d'obs. à proximité